{"data":{"norad_id":68186,"intl_designator":"2026-050V","name":"STARLINK-37079","alt_names":[],"object_type":"PAYLOAD","status":"ACTIVE","operator":null,"country":"US","launch_date":"2026-03-14","launch_site_code":"AFETR","launch_vehicle":null,"mission":null,"orbit_class":"UNKNOWN","rcs_meters":null,"size_class":null,"mass_kg":null,"dimensions":null,"purposes":["comms"],"wikipedia_slug":null,"has_3d_model":false,"image_url":null,"decayed_at":null,"tle_current":{"epoch":"2026-05-25T01:02:54.784896Z","epoch_age_seconds":64562,"freshness":"FRESH","line1":"1 68186U 26050V   26145.04368964  .00037507  00000+0  10797-2 0  9997","line2":"2 68186  53.1555 271.3716 0000700  77.7856 282.3226 15.35431760 12383","mean_motion":15.3543176,"eccentricity":7.0e-5,"inclination_deg":53.1555,"raan_deg":271.3716,"arg_perigee_deg":77.7856,"mean_anomaly_deg":282.3226,"bstar":0.0010797,"rev_number":1238,"period_min":93.784695452698,"perigee_km":459.15970512444,"apogee_km":460.11699367335,"semimajor_km":6837.7753493989,"source":"CELESTRAK","updated_at":"2026-05-25T13:38:21.856647Z"}}}